カタログに戻る

INMARSAT 4-F2

運用中ナビゲーションGEO
NORAD 28899·PAYLOAD·🇮🇲 IM

打ち上げ Nov 8, 2005 から Sea Launch Platform

Loading…

TLE

最新Source: Space-Track

元期: Sep 14, 2026, 07:38 UTC

1 28899U 05044A   26257.31841117 -.00000267  00000-0  00000-0 0  9993
2 28899   5.2113  43.7229 0002355 130.4661  77.2435  1.00271747 76418

AllMySatでINMARSAT 4-F2をリアルタイム追跡

Download on the App Store